| time (UTC) | temp C | wind direction | speed KPH | gust KPH | rain 1hr cm | rain 24hr cm | rain mn cm | humidity % | barometer mb |
| 20260902185011 | 27 | 283 | 0.0 | 4.8 | 0.00 | 0.00 | 0.00 | 81 | 1019.7 |
| 20260902184520 | 27 | 220 | 0.0 | 4.8 | 0.00 | 0.00 | 0.00 | 81 | 1019.6 |
| 20260902184028 | 27 | 240 | 0.0 | 3.2 | 0.00 | 0.00 | 0.00 | 81 | 1019.7 |
| 20260902183538 | 27 | 276 | 0.0 | 1.6 | 0.00 | 0.00 | 0.00 | 81 | 1019.5 |
| 20260902183046 | 27 | 256 | 0.0 | 3.2 | 0.00 | 0.00 | 0.00 | 80 | 1019.3 |
| 20260902182554 | 27 | 234 | 0.0 | 3.2 | 0.00 | 0.00 | 0.00 | 80 | 1019.5 |
| 20260902182104 | 27 | 235 | 0.0 | 4.8 | 0.00 | 0.00 | 0.00 | 80 | 1019.5 |
| 20260902181509 | 27 | 281 | 1.6 | 4.8 | 0.00 | 0.00 | 0.00 | 79 | 1019.5 |
| 20260902181017 | 27 | 245 | 0.0 | 6.4 | 0.00 | 0.00 | 0.00 | 79 | 1019.6 |
| 20260902180526 | 28 | 240 | 1.6 | 6.4 | 0.00 | 0.00 | 0.00 | 79 | 1019.5 |
| 20260902180040 | 28 | 276 | 1.6 | 8.0 | 0.00 | 0.00 | 0.00 | 78 | 1019.5 |
| 20260902175544 | 28 | 234 | 4.8 | 8.0 | 0.00 | 0.00 | 0.00 | 78 | 1019.6 |
| 20260902175053 | 28 | 264 | 3.2 | 8.0 | 0.00 | 0.00 | 0.00 | 77 | 1019.5 |
| 20260902174607 | 28 | 259 | 3.2 | 8.0 | 0.00 | 0.00 | 0.00 | 77 | 1019.6 |
| 20260902174006 | 28 | 244 | 1.6 | 6.4 | 0.00 | 0.00 | 0.00 | 77 | 1019.5 |
| 20260902173516 | 28 | 243 | 1.6 | 6.4 | 0.00 | 0.00 | 0.00 | 77 | 1019.5 |
| 20260902173033 | 28 | 243 | 3.2 | 9.7 | 0.00 | 0.00 | 0.00 | 76 | 1019.5 |
| 20260902172531 | 28 | 288 | 4.8 | 11.3 | 0.00 | 0.00 | 0.00 | 76 | 1019.5 |
| 20260902172041 | 28 | 285 | 4.8 | 11.3 | 0.00 | 0.00 | 0.00 | 75 | 1019.6 |
| 20260902171559 | 28 | 270 | 4.8 | 9.7 | 0.00 | 0.00 | 0.00 | 75 | 1019.6 |
| 20260902171057 | 29 | 261 | 3.2 | 9.7 | 0.00 | 0.00 | 0.00 | 75 | 1019.6 |
| 20260902170501 | 29 | 248 | 1.6 | 8.0 | 0.00 | 0.00 | 0.00 | 74 | 1019.5 |
| 20260902170012 | 29 | 271 | 3.2 | 8.0 | 0.00 | 0.00 | 0.00 | 75 | 1019.4 |
| 20260902165524 | 29 | 257 | 3.2 | 8.0 | 0.00 | 0.00 | 0.00 | 75 | 1019.6 |
| 20260902165030 | 29 | 281 | 3.2 | 9.7 | 0.00 | 0.00 | 0.00 | 75 | 1019.5 |
| 20260902164537 | 29 | 251 | 3.2 | 11.3 | 0.00 | 0.00 | 0.00 | 75 | 1019.5 |
| 20260902164047 | 29 | 304 | 4.8 | 11.3 | 0.00 | 0.00 | 0.00 | 74 | 1019.5 |
| 20260902163556 | 29 | 283 | 4.8 | 11.3 | 0.00 | 0.00 | 0.00 | 74 | 1019.5 |
| 20260902163107 | 29 | 290 | 4.8 | 11.3 | 0.00 | 0.00 | 0.00 | 73 | 1019.5 |
| 20260902162508 | 29 | 283 | 4.8 | 12.9 | 0.00 | 0.00 | 0.00 | 74 | 1019.5 |
| 20260902162016 | 29 | 313 | 4.8 | 11.3 | 0.00 | 0.00 | 0.00 | 73 | 1019.5 |
| 20260902161537 | 29 | 262 | 6.4 | 16.1 | 0.00 | 0.00 | 0.00 | 73 | 1019.5 |
| 20260902161034 | 29 | 283 | 6.4 | 16.1 | 0.00 | 0.00 | 0.00 | 73 | 1019.5 |
| 20260902160542 | 29 | 44 | 4.8 | 11.3 | 0.00 | 0.00 | 0.00 | 73 | 1019.5 |
| 20260902160054 | 29 | 273 | 4.8 | 12.9 | 0.00 | 0.00 | 0.00 | 73 | 1019.6 |
| 20260902155601 | 29 | 276 | 4.8 | 12.9 | 0.00 | 0.00 | 0.00 | 73 | 1019.6 |
| 20260902155110 | 29 | 242 | 8.0 | 16.1 | 0.00 | 0.00 | 0.00 | 73 | 1019.7 |
| 20260902154514 | 29 | 251 | 6.4 | 16.1 | 0.00 | 0.00 | 0.00 | 73 | 1019.7 |
| 20260902154021 | 29 | 251 | 8.0 | 14.5 | 0.00 | 0.00 | 0.00 | 72 | 1019.8 |
| 20260902153531 | 30 | 286 | 6.4 | 12.9 | 0.00 | 0.00 | 0.00 | 72 | 1019.7 |
| 20260902153040 | 30 | 321 | 6.4 | 12.9 | 0.00 | 0.00 | 0.00 | 72 | 1019.7 |
| 20260902152548 | 30 | 301 | 4.8 | 12.9 | 0.00 | 0.00 | 0.00 | 72 | 1019.8 |
| 20260902152058 | 30 | 275 | 6.4 | 11.3 | 0.00 | 0.00 | 0.00 | 72 | 1019.8 |
| 20260902151508 | 30 | 247 | 4.8 | 14.5 | 0.00 | 0.00 | 0.00 | 73 | 1019.8 |
| 20260902151010 | 29 | 316 | 8.0 | 14.5 | 0.00 | 0.00 | 0.00 | 73 | 1019.9 |
| 20260902150521 | 30 | 295 | 6.4 | 14.5 | 0.00 | 0.00 | 0.00 | 73 | 1019.9 |
| 20260902150030 | 30 | 246 | 6.4 | 14.5 | 0.00 | 0.00 | 0.00 | 72 | 1019.9 |
| 20260902145535 | 30 | 277 | 4.8 | 16.1 | 0.00 | 0.00 | 0.00 | 73 | 1019.9 |
| 20260902145044 | 30 | 272 | 8.0 | 16.1 | 0.00 | 0.00 | 0.00 | 72 | 1019.9 |
| 20260902144553 | 29 | 285 | 8.0 | 16.1 | 0.00 | 0.00 | 0.00 | 72 | 1019.9 |
| 20260902144100 | 29 | 230 | 8.0 | 17.7 | 0.00 | 0.00 | 0.00 | 72 | 1019.9 |
| 20260902143505 | 30 | 292 | 6.4 | 17.7 | 0.00 | 0.00 | 0.00 | 72 | 1019.9 |
| 20260902143010 | 30 | 315 | 9.7 | 17.7 | 0.00 | 0.00 | 0.00 | 71 | 1020.0 |
| 20260902142519 | 30 | 282 | 8.0 | 16.1 | 0.00 | 0.00 | 0.00 | 71 | 1020.0 |
| 20260902142028 | 30 | 226 | 6.4 | 16.1 | 0.00 | 0.00 | 0.00 | 71 | 1020.0 |
| 20260902141538 | 30 | 304 | 8.0 | 16.1 | 0.00 | 0.00 | 0.00 | 68 | 1020.0 |
| 20260902141047 | 30 | 309 | 8.0 | 16.1 | 0.00 | 0.00 | 0.00 | 70 | 1020.1 |
| 20260902140551 | 30 | 284 | 8.0 | 16.1 | 0.00 | 0.00 | 0.00 | 69 | 1020.0 |
| 20260902140101 | 30 | 345 | 6.4 | 16.1 | 0.00 | 0.00 | 0.00 | 66 | 1019.9 |
| 20260902135508 | 30 | 276 | 6.4 | 14.5 | 0.00 | 0.00 | 0.00 | 66 | 1020.1 |
| 20260902135012 | 30 | 285 | 8.0 | 16.1 | 0.00 | 0.00 | 0.00 | 66 | 1020.2 |
| 20260902134519 | 30 | 300 | 8.0 | 16.1 | 0.00 | 0.00 | 0.00 | 67 | 1020.3 |
| 20260902134029 | 30 | 321 | 8.0 | 14.5 | 0.00 | 0.00 | 0.00 | 67 | 1020.3 |
| 20260902133535 | 30 | 267 | 6.4 | 14.5 | 0.00 | 0.00 | 0.00 | 68 | 1020.4 |
| 20260902133044 | 31 | 295 | 4.8 | 12.9 | 0.00 | 0.00 | 0.00 | 66 | 1020.4 |
| 20260902132552 | 30 | 272 | 6.4 | 14.5 | 0.00 | 0.00 | 0.00 | 64 | 1020.4 |
| 20260902132103 | 30 | 281 | 6.4 | 14.5 | 0.00 | 0.00 | 0.00 | 65 | 1020.5 |
| 20260902131506 | 30 | 291 | 8.0 | 16.1 | 0.00 | 0.00 | 0.00 | 64 | 1020.5 |
| 20260902131015 | 30 | 258 | 6.4 | 16.1 | 0.00 | 0.00 | 0.00 | 68 | 1020.5 |
| 20260902130524 | 30 | 293 | 8.0 | 16.1 | 0.00 | 0.00 | 0.00 | 68 | 1020.5 |
| 20260902130035 | 30 | 273 | 6.4 | 12.9 | 0.00 | 0.00 | 0.00 | 68 | 1020.5 |
| 20260902125541 | 30 | 221 | 8.0 | 14.5 | 0.00 | 0.00 | 0.00 | 68 | 1020.5 |
| 20260902125050 | 30 | 271 | 8.0 | 17.7 | 0.00 | 0.00 | 0.00 | 70 | 1020.4 |
| 20260902124504 | 30 | 323 | 11.3 | 17.7 | 0.00 | 0.00 | 0.00 | 70 | 1020.4 |
| 20260902124027 | 30 | 291 | 8.0 | 17.7 | 0.00 | 0.00 | 0.00 | 70 | 1020.4 |
| 20260902123538 | 30 | 291 | 8.0 | 17.7 | 0.00 | 0.00 | 0.00 | 71 | 1020.4 |
| 20260902123044 | 30 | 278 | 8.0 | 16.1 | 0.00 | 0.00 | 0.00 | 71 | 1020.5 |
| 20260902122554 | 30 | 245 | 8.0 | 19.3 | 0.00 | 0.00 | 0.00 | 70 | 1020.5 |
| 20260902122102 | 30 | 289 | 8.0 | 19.3 | 0.00 | 0.00 | 0.00 | 70 | 1020.5 |
| 20260902121506 | 30 | 214 | 11.3 | 19.3 | 0.00 | 0.00 | 0.00 | 71 | 1020.5 |
| 20260902121015 | 30 | 304 | 9.7 | 19.3 | 0.00 | 0.00 | 0.00 | 69 | 1020.4 |
| 20260902120524 | 30 | 255 | 9.7 | 19.3 | 0.00 | 0.00 | 0.00 | 69 | 1020.5 |
| 20260902120032 | 30 | 233 | 8.0 | 14.5 | 0.00 | 0.00 | 0.00 | 68 | 1020.5 |
| 20260902115546 | 30 | 318 | 6.4 | 14.5 | 0.00 | 0.00 | 0.00 | 68 | 1020.3 |
| 20260902115050 | 30 | 331 | 4.8 | 11.3 | 0.00 | 0.00 | 0.00 | 67 | 1020.3 |
| 20260902114617 | 30 | 281 | 6.4 | 14.5 | 0.00 | 0.00 | 0.00 | 66 | 1020.4 |
| 20260902114003 | 30 | 293 | 4.8 | 12.9 | 0.00 | 0.00 | 0.00 | 65 | 1020.5 |
| 20260902113511 | 30 | 252 | 6.4 | 12.9 | 0.00 | 0.00 | 0.00 | 70 | 1020.6 |
| 20260902113019 | 30 | 305 | 6.4 | 12.9 | 0.00 | 0.00 | 0.00 | 71 | 1020.4 |
| 20260902112528 | 30 | 285 | 8.0 | 12.9 | 0.00 | 0.00 | 0.00 | 71 | 1020.4 |
| 20260902112037 | 30 | 262 | 8.0 | 17.7 | 0.00 | 0.00 | 0.00 | 71 | 1020.6 |
| 20260902111553 | 30 | 297 | 6.4 | 19.3 | 0.00 | 0.00 | 0.00 | 71 | 1020.7 |
| 20260902111050 | 30 | 314 | 9.7 | 19.3 | 0.00 | 0.00 | 0.00 | 71 | 1020.7 |
| 20260902110602 | 30 | 302 | 11.3 | 16.1 | 0.00 | 0.00 | 0.00 | 71 | 1020.8 |
| 20260902110114 | 30 | 294 | 6.4 | 16.1 | 0.00 | 0.00 | 0.00 | 68 | 1020.7 |
| 20260902105511 | 30 | 298 | 8.0 | 16.1 | 0.00 | 0.00 | 0.00 | 68 | 1020.5 |
| 20260902105019 | 30 | 198 | 6.4 | 12.9 | 0.00 | 0.00 | 0.00 | 67 | 1020.5 |
| 20260902104536 | 30 | 327 | 3.2 | 11.3 | 0.00 | 0.00 | 0.00 | 68 | 1020.6 |
| 20260902104039 | 30 | 266 | 3.2 | 11.3 | 0.00 | 0.00 | 0.00 | 69 | 1020.7 |
| 20260902103549 | 30 | 277 | 3.2 | 11.3 | 0.00 | 0.00 | 0.00 | 69 | 1020.8 |
| 20260902103157 | 30 | 289 | 3.2 | 8.0 | 0.00 | 0.00 | 0.00 | 70 | 1020.8 |
| 20260902102504 | 29 | 265 | 6.4 | 14.5 | 0.00 | 0.00 | 0.00 | 70 | 1021.0 |
| 20260902102014 | 29 | 279 | 6.4 | 14.5 | 0.00 | 0.00 | 0.00 | 70 | 1021.0 |
| 20260902101520 | 30 | 285 | 6.4 | 14.5 | 0.00 | 0.00 | 0.00 | 70 | 1021.0 |
| 20260902101031 | 29 | 305 | 6.4 | 14.5 | 0.00 | 0.00 | 0.00 | 71 | 1021.0 |
| 20260902100540 | 29 | 284 | 6.4 | 12.9 | 0.00 | 0.00 | 0.00 | 70 | 1020.9 |
| 20260902100045 | 30 | 307 | 6.4 | 14.5 | 0.00 | 0.00 | 0.00 | 70 | 1020.9 |
| 20260902095553 | 29 | 240 | 4.8 | 17.7 | 0.00 | 0.00 | 0.00 | 69 | 1020.9 |
| 20260902095102 | 29 | 326 | 8.0 | 17.7 | 0.00 | 0.00 | 0.00 | 69 | 1020.9 |
| 20260902094506 | 29 | 292 | 6.4 | 14.5 | 0.00 | 0.00 | 0.00 | 69 | 1020.9 |
| 20260902094014 | 29 | 295 | 4.8 | 16.1 | 0.00 | 0.00 | 0.00 | 70 | 1020.8 |
| 20260902093524 | 29 | 276 | 9.7 | 16.1 | 0.00 | 0.00 | 0.00 | 70 | 1020.8 |
| 20260902093032 | 29 | 276 | 6.4 | 12.9 | 0.00 | 0.00 | 0.00 | 69 | 1020.7 |
| 20260902092540 | 30 | 304 | 6.4 | 12.9 | 0.00 | 0.00 | 0.00 | 69 | 1020.6 |
| 20260902092052 | 30 | 314 | 4.8 | 11.3 | 0.00 | 0.00 | 0.00 | 67 | 1020.6 |
| 20260902091558 | 30 | 271 | 0.0 | 6.4 | 0.00 | 0.00 | 0.00 | 63 | 1020.5 |
| 20260902091109 | 30 | 278 | 3.2 | 6.4 | 0.00 | 0.00 | 0.00 | 63 | 1020.3 |
| 20260902090511 | 30 | 280 | 0.0 | 0.0 | 0.00 | 0.00 | 0.00 | 61 | 1020.3 |
| 20260902090016 | 30 | 302 | 0.0 | 0.0 | 0.00 | 0.00 | 0.00 | 60 | 1020.3 |
| 20260902085525 | 30 | 281 | 0.0 | 0.0 | 0.00 | 0.00 | 0.00 | 59 | 1020.3 |
| 20260902085034 | 30 | 224 | 0.0 | 0.0 | 0.00 | 0.00 | 0.00 | 59 | 1020.2 |
| 20260902084542 | 30 | 278 | 0.0 | 0.0 | 0.00 | 0.00 | 0.00 | 59 | 1020.1 |
| 20260902084053 | 30 | 32 | 0.0 | 0.0 | 0.00 | 0.00 | 0.00 | 59 | 1020.2 |
| 20260902083559 | 30 | 65 | 0.0 | 0.0 | 0.00 | 0.00 | 0.00 | 59 | 1020.3 |
| 20260902083108 | 30 | 99 | 0.0 | 0.0 | 0.00 | 0.00 | 0.00 | 60 | 1020.2 |
| 20260902082511 | 29 | 250 | 0.0 | 0.0 | 0.00 | 0.00 | 0.00 | 61 | 1020.2 |
| 20260902082019 | 28 | 290 | 0.0 | 0.0 | 0.00 | 0.00 | 0.00 | 62 | 1020.1 |
| 20260902081536 | 28 | 290 | 0.0 | 0.0 | 0.00 | 0.00 | 0.00 | 62 | 1020.1 |
| 20260902081036 | 28 | 354 | 0.0 | 0.0 | 0.00 | 0.00 | 0.00 | 63 | 1020.1 |
| 20260902080544 | 28 | 353 | 0.0 | 0.0 | 0.00 | 0.00 | 0.00 | 64 | 1019.9 |
| 20260902080053 | 27 | 96 | 0.0 | 0.0 | 0.00 | 0.00 | 0.00 | 66 | 1019.8 |
| 20260902075601 | 27 | 77 | 0.0 | 0.0 | 0.00 | 0.00 | 0.00 | 65 | 1019.8 |
| 20260902075113 | 27 | 87 | 0.0 | 0.0 | 0.00 | 0.00 | 0.00 | 65 | 1019.8 |
| 20260902074518 | 27 | 117 | 0.0 | 0.0 | 0.00 | 0.00 | 0.00 | 69 | 1019.8 |
| 20260902074024 | 26 | 116 | 0.0 | 0.0 | 0.00 | 0.00 | 0.00 | 70 | 1019.8 |
| 20260902073531 | 26 | 38 | 0.0 | 0.0 | 0.00 | 0.00 | 0.00 | 71 | 1019.7 |
| 20260902073040 | 25 | 328 | 0.0 | 0.0 | 0.00 | 0.00 | 0.00 | 73 | 1019.7 |
| 20260902072549 | 25 | 326 | 0.0 | 0.0 | 0.00 | 0.00 | 0.00 | 73 | 1019.8 |
| 20260902072057 | 25 | 306 | 0.0 | 0.0 | 0.00 | 0.00 | 0.00 | 74 | 1019.7 |
| 20260902071505 | 25 | 303 | 0.0 | 0.0 | 0.00 | 0.00 | 0.00 | 77 | 1019.7 |
| 20260902071011 | 24 | 303 | 0.0 | 0.0 | 0.00 | 0.00 | 0.00 | 78 | 1019.7 |
| 20260902070519 | 23 | 303 | 0.0 | 0.0 | 0.00 | 0.00 | 0.00 | 78 | 1019.6 |
| 20260902070028 | 23 | 72 | 0.0 | 0.0 | 0.00 | 0.00 | 0.00 | 78 | 1019.6 |
| 20260902065537 | 23 | 127 | 0.0 | 0.0 | 0.00 | 0.00 | 0.00 | 79 | 1019.6 |
| 20260902065050 | 22 | 127 | 0.0 | 0.0 | 0.00 | 0.00 | 0.00 | 81 | 1019.6 |
| 20260902064555 | 22 | 117 | 0.0 | 0.0 | 0.00 | 0.00 | 0.00 | 83 | 1019.6 |
| 20260902064105 | 22 | 82 | 0.0 | 0.0 | 0.00 | 0.00 | 0.00 | 84 | 1019.6 |
| 20260902063507 | 22 | 87 | 0.0 | 0.0 | 0.00 | 0.00 | 0.00 | 84 | 1019.6 |
| 20260902063019 | 21 | 84 | 0.0 | 0.0 | 0.00 | 0.00 | 0.00 | 85 | 1019.7 |
| 20260902062525 | 21 | 321 | 0.0 | 0.0 | 0.00 | 0.00 | 0.00 | 85 | 1019.7 |
| 20260902062036 | 21 | 9 | 0.0 | 0.0 | 0.00 | 0.00 | 0.00 | 85 | 1019.5 |
| 20260902061549 | 21 | 9 | 0.0 | 0.0 | 0.00 | 0.00 | 0.00 | 85 | 1019.4 |
| 20260902061054 | 21 | 10 | 0.0 | 0.0 | 0.00 | 0.00 | 0.00 | 86 | 1019.4 |
| 20260902060602 | 21 | 10 | 0.0 | 0.0 | 0.00 | 0.00 | 0.00 | 86 | 1019.3 |
| 20260902060015 | 21 | 10 | 0.0 | 0.0 | 0.00 | 0.00 | 0.00 | 86 | 1019.2 |
| 20260902055517 | 21 | 115 | 0.0 | 0.0 | 0.00 | 0.00 | 0.00 | 86 | 1019.1 |
| 20260902055024 | 21 | 115 | 0.0 | 0.0 | 0.00 | 0.00 | 0.00 | 86 | 1019.1 |
| 20260902054539 | 21 | 25 | 0.0 | 0.0 | 0.00 | 0.00 | 0.00 | 87 | 1019.1 |
| 20260902054041 | 21 | 24 | 0.0 | 0.0 | 0.00 | 0.00 | 0.00 | 87 | 1019.1 |
| 20260902053550 | 21 | 68 | 0.0 | 0.0 | 0.00 | 0.00 | 0.00 | 87 | 1019.0 |
| 20260902053103 | 21 | 307 | 0.0 | 0.0 | 0.00 | 0.00 | 0.00 | 87 | 1019.0 |
| 20260902052605 | 21 | 307 | 0.0 | 0.0 | 0.00 | 0.00 | 0.00 | 87 | 1019.1 |
| 20260902052009 | 21 | 307 | 0.0 | 0.0 | 0.00 | 0.00 | 0.00 | 87 | 1019.0 |
| 20260902051517 | 21 | 291 | 0.0 | 0.0 | 0.00 | 0.00 | 0.00 | 88 | 1018.9 |
| 20260902051033 | 21 | 90 | 0.0 | 0.0 | 0.00 | 0.00 | 0.00 | 87 | 1018.9 |
| 20260902050535 | 21 | 90 | 0.0 | 0.0 | 0.00 | 0.00 | 0.00 | 87 | 1018.9 |
| 20260902050046 | 21 | 90 | 0.0 | 0.0 | 0.00 | 0.00 | 0.00 | 87 | 1018.9 |
| 20260902045552 | 21 | 90 | 0.0 | 0.0 | 0.00 | 0.00 | 0.00 | 87 | 1018.8 |
| 20260902045101 | 21 | 90 | 0.0 | 0.0 | 0.00 | 0.00 | 0.00 | 87 | 1018.8 |
| 20260902044505 | 21 | 90 | 0.0 | 0.0 | 0.00 | 0.00 | 0.00 | 87 | 1018.9 |
| 20260902044014 | 21 | 91 | 0.0 | 0.0 | 0.00 | 0.00 | 0.00 | 88 | 1018.9 |
| 20260902043521 | 21 | 91 | 0.0 | 0.0 | 0.00 | 0.00 | 0.00 | 87 | 1018.9 |
| 20260902043030 | 21 | 72 | 0.0 | 0.0 | 0.00 | 0.00 | 0.00 | 87 | 1018.9 |
| 20260902042541 | 21 | 351 | 0.0 | 0.0 | 0.00 | 0.00 | 0.00 | 87 | 1018.9 |
| 20260902042047 | 21 | 351 | 0.0 | 0.0 | 0.00 | 0.00 | 0.00 | 88 | 1018.8 |
| 20260902041557 | 21 | 351 | 0.0 | 0.0 | 0.00 | 0.00 | 0.00 | 87 | 1018.8 |
| 20260902041102 | 21 | 350 | 0.0 | 0.0 | 0.00 | 0.00 | 0.00 | 87 | 1018.9 |
| 20260902040611 | 21 | 350 | 0.0 | 0.0 | 0.00 | 0.00 | 0.00 | 88 | 1018.8 |
| 20260902040014 | 21 | 349 | 0.0 | 0.0 | 0.00 | 0.00 | 0.00 | 87 | 1018.8 |
| 20260902035522 | 21 | 350 | 0.0 | 0.0 | 0.00 | 0.00 | 0.00 | 87 | 1018.9 |
| 20260902035039 | 21 | 350 | 0.0 | 0.0 | 0.00 | 0.00 | 0.00 | 87 | 1018.9 |
| 20260902034602 | 21 | 348 | 0.0 | 0.0 | 0.00 | 0.00 | 0.00 | 87 | 1018.9 |
| 20260902034058 | 21 | 348 | 0.0 | 0.0 | 0.00 | 0.00 | 0.00 | 87 | 1019.0 |
| 20260902033607 | 21 | 348 | 0.0 | 0.0 | 0.00 | 0.00 | 0.00 | 87 | 1019.0 |
| 20260902033019 | 21 | 348 | 0.0 | 0.0 | 0.00 | 0.00 | 0.00 | 87 | 1018.9 |
| 20260902032529 | 21 | 348 | 0.0 | 0.0 | 0.00 | 0.00 | 0.00 | 87 | 1019.0 |
| 20260902032036 | 21 | 348 | 0.0 | 0.0 | 0.00 | 0.00 | 0.00 | 87 | 1018.9 |
| 20260902031548 | 21 | 348 | 0.0 | 0.0 | 0.00 | 0.00 | 0.00 | 86 | 1019.0 |
| 20260902031056 | 22 | 348 | 0.0 | 0.0 | 0.00 | 0.00 | 0.00 | 86 | 1019.0 |
| 20260902030603 | 22 | 348 | 0.0 | 0.0 | 0.00 | 0.00 | 0.00 | 86 | 1019.0 |
| 20260902030006 | 22 | 348 | 0.0 | 0.0 | 0.00 | 0.00 | 0.00 | 86 | 1019.1 |
| 20260902025515 | 22 | 348 | 0.0 | 0.0 | 0.00 | 0.00 | 0.00 | 86 | 1019.0 |
| 20260902025022 | 22 | 103 | 0.0 | 0.0 | 0.00 | 0.00 | 0.00 | 85 | 1019.1 |
| 20260902024534 | 22 | 103 | 0.0 | 0.0 | 0.00 | 0.00 | 0.00 | 86 | 1019.2 |
| 20260902024040 | 22 | 103 | 0.0 | 0.0 | 0.00 | 0.00 | 0.00 | 86 | 1019.3 |
| 20260902023548 | 22 | 109 | 0.0 | 0.0 | 0.00 | 0.00 | 0.00 | 87 | 1019.4 |
| 20260902023057 | 22 | 70 | 0.0 | 0.0 | 0.00 | 0.00 | 0.00 | 87 | 1019.3 |
| 20260902022501 | 22 | 23 | 0.0 | 0.0 | 0.00 | 0.00 | 0.00 | 87 | 1019.4 |
| 20260902022010 | 22 | 26 | 0.0 | 0.0 | 0.00 | 0.00 | 0.00 | 87 | 1019.5 |
| 20260902021518 | 22 | 117 | 0.0 | 0.0 | 0.00 | 0.00 | 0.00 | 87 | 1019.6 |
| 20260902021029 | 22 | 117 | 0.0 | 0.0 | 0.00 | 0.00 | 0.00 | 87 | 1019.5 |
| 20260902020535 | 22 | 117 | 0.0 | 0.0 | 0.00 | 0.00 | 0.00 | 87 | 1019.4 |
| 20260902020053 | 22 | 117 | 0.0 | 0.0 | 0.00 | 0.00 | 0.00 | 87 | 1019.4 |
| 20260902015553 | 22 | 119 | 0.0 | 0.0 | 0.00 | 0.00 | 0.00 | 86 | 1019.5 |
| 20260902015101 | 22 | 119 | 0.0 | 0.0 | 0.00 | 0.00 | 0.00 | 87 | 1019.6 |
| 20260902014507 | 22 | 119 | 0.0 | 0.0 | 0.00 | 0.00 | 0.00 | 86 | 1019.6 |
| 20260902014014 | 22 | 119 | 0.0 | 0.0 | 0.00 | 0.00 | 0.00 | 86 | 1019.5 |
| 20260902013534 | 22 | 119 | 0.0 | 0.0 | 0.00 | 0.00 | 0.00 | 87 | 1019.6 |
| 20260902013042 | 22 | 119 | 0.0 | 0.0 | 0.00 | 0.00 | 0.00 | 87 | 1019.6 |
| 20260902012549 | 22 | 119 | 0.0 | 1.6 | 0.00 | 0.00 | 0.00 | 86 | 1019.7 |
| 20260902012058 | 22 | 119 | 0.0 | 1.6 | 0.00 | 0.00 | 0.00 | 86 | 1019.6 |
| 20260902011502 | 22 | 119 | 0.0 | 1.6 | 0.00 | 0.00 | 0.00 | 86 | 1019.7 |
| 20260902011011 | 22 | 119 | 0.0 | 0.0 | 0.00 | 0.00 | 0.00 | 86 | 1019.7 |
| 20260902010519 | 22 | 119 | 0.0 | 0.0 | 0.00 | 0.00 | 0.00 | 86 | 1019.7 |
| 20260902010034 | 22 | 119 | 0.0 | 0.0 | 0.00 | 0.00 | 0.00 | 86 | 1019.8 |
| 20260902005536 | 22 | 119 | 0.0 | 1.6 | 0.00 | 0.00 | 0.00 | 86 | 1019.8 |
| 20260902005048 | 22 | 119 | 0.0 | 1.6 | 0.00 | 0.00 | 0.00 | 86 | 1019.8 |
| 20260902004557 | 22 | 122 | 0.0 | 1.6 | 0.00 | 0.00 | 0.00 | 86 | 1019.8 |
| 20260902004106 | 22 | 123 | 0.0 | 1.6 | 0.00 | 0.00 | 0.00 | 86 | 1019.8 |
| 20260902003512 | 23 | 123 | 0.0 | 0.0 | 0.00 | 0.00 | 0.00 | 86 | 1019.9 |
| 20260902003019 | 23 | 123 | 0.0 | 1.6 | 0.00 | 0.00 | 0.00 | 86 | 1020.0 |
| 20260902002528 | 23 | 123 | 0.0 | 1.6 | 0.00 | 0.00 | 0.00 | 86 | 1019.9 |
| 20260902002036 | 23 | 92 | 0.0 | 1.6 | 0.00 | 0.00 | 0.00 | 86 | 1019.9 |
| 20260902001553 | 23 | 340 | 0.0 | 1.6 | 0.00 | 0.00 | 0.00 | 86 | 1019.9 |
| 20260902001052 | 23 | 340 | 0.0 | 1.6 | 0.00 | 0.00 | 0.00 | 86 | 1019.9 |
| 20260902000505 | 23 | 340 | 0.0 | 0.0 | 0.00 | 0.00 | 0.00 | 86 | 1019.9 |
| 20260902000021 | 23 | 340 | 0.0 | 0.0 | 0.00 | 0.00 | 0.00 | 85 | 1020.0 |
| 20260901235523 | 23 | 340 | 0.0 | 1.6 | 0.00 | 0.00 | 0.00 | 85 | 1019.9 |
| 20260901235033 | 23 | 340 | 0.0 | 1.6 | 0.00 | 0.00 | 0.00 | 85 | 1019.8 |
| 20260901234540 | 23 | 340 | 0.0 | 1.6 | 0.00 | 0.00 | 0.00 | 85 | 1020.0 |
| 20260901234048 | 23 | 302 | 0.0 | 1.6 | 0.00 | 0.00 | 0.00 | 85 | 1019.9 |
| 20260901233602 | 23 | 302 | 0.0 | 0.0 | 0.00 | 0.00 | 0.00 | 84 | 1020.0 |
| 20260901233001 | 23 | 302 | 0.0 | 0.0 | 0.00 | 0.00 | 0.00 | 84 | 1020.1 |
| 20260901232509 | 24 | 302 | 0.0 | 1.6 | 0.00 | 0.00 | 0.00 | 84 | 1020.0 |
| 20260901232019 | 24 | 302 | 0.0 | 3.2 | 0.00 | 0.00 | 0.00 | 84 | 1019.9 |
| 20260901231528 | 24 | 302 | 0.0 | 3.2 | 0.00 | 0.00 | 0.00 | 84 | 1019.9 |
| 20260901231035 | 24 | 92 | 0.0 | 0.0 | 0.00 | 0.00 | 0.00 | 84 | 1019.9 |
| 20260901230545 | 24 | 93 | 0.0 | 0.0 | 0.00 | 0.00 | 0.00 | 84 | 1019.9 |
| 20260901230054 | 24 | 92 | 0.0 | 0.0 | 0.00 | 0.00 | 0.00 | 83 | 1019.8 |
| 20260901225604 | 24 | 92 | 0.0 | 0.0 | 0.00 | 0.00 | 0.00 | 84 | 1019.7 |
| 20260901225005 | 24 | 92 | 0.0 | 1.6 | 0.00 | 0.00 | 0.00 | 83 | 1019.6 |
| 20260901224518 | 24 | 93 | 0.0 | 1.6 | 0.00 | 0.00 | 0.00 | 83 | 1019.6 |
| 20260901224019 | 24 | 139 | 0.0 | 1.6 | 0.00 | 0.00 | 0.00 | 83 | 1019.8 |
| 20260901223528 | 24 | 184 | 0.0 | 0.0 | 0.00 | 0.00 | 0.00 | 82 | 1019.8 |
| 20260901223042 | 24 | 184 | 0.0 | 0.0 | 0.00 | 0.00 | 0.00 | 82 | 1019.7 |
| 20260901222545 | 25 | 184 | 0.0 | 1.6 | 0.00 | 0.00 | 0.00 | 82 | 1019.7 |
| 20260901222055 | 25 | 184 | 0.0 | 3.2 | 0.00 | 0.00 | 0.00 | 82 | 1019.7 |
| 20260901221608 | 25 | 214 | 0.0 | 3.2 | 0.00 | 0.00 | 0.00 | 82 | 1019.6 |
| 20260901221007 | 25 | 121 | 0.0 | 1.6 | 0.00 | 0.00 | 0.00 | 81 | 1019.5 |
| 20260901220516 | 25 | 84 | 0.0 | 1.6 | 0.00 | 0.00 | 0.00 | 81 | 1019.4 |
| 20260901220029 | 25 | 98 | 0.0 | 1.6 | 0.00 | 0.00 | 0.00 | 81 | 1019.3 |
| 20260901215529 | 25 | 134 | 0.0 | 1.6 | 0.00 | 0.00 | 0.00 | 81 | 1019.3 |
| 20260901215039 | 25 | 134 | 0.0 | 1.6 | 0.00 | 0.00 | 0.00 | 81 | 1019.3 |
| 20260901214547 | 25 | 212 | 0.0 | 1.6 | 0.00 | 0.00 | 0.00 | 81 | 1019.1 |
| 20260901214054 | 25 | 85 | 0.0 | 1.6 | 0.00 | 0.00 | 0.00 | 80 | 1019.1 |
| 20260901213603 | 25 | 86 | 0.0 | 4.8 | 0.00 | 0.00 | 0.00 | 80 | 1018.9 |
| 20260901213008 | 25 | 89 | 0.0 | 4.8 | 0.00 | 0.00 | 0.00 | 79 | 1018.9 |
| 20260901212518 | 26 | 88 | 0.0 | 0.0 | 0.00 | 0.00 | 0.00 | 79 | 1019.0 |
| 20260901212026 | 26 | 88 | 0.0 | 3.2 | 0.00 | 0.00 | 0.00 | 79 | 1018.9 |
| 20260901211539 | 26 | 88 | 0.0 | 3.2 | 0.00 | 0.00 | 0.00 | 78 | 1018.9 |
| 20260901211047 | 26 | 84 | 0.0 | 3.2 | 0.00 | 0.00 | 0.00 | 78 | 1018.8 |
| 20260901210552 | 26 | 79 | 0.0 | 3.2 | 0.00 | 0.00 | 0.00 | 77 | 1018.9 |
| 20260901210104 | 26 | 216 | 0.0 | 1.6 | 0.00 | 0.00 | 0.00 | 77 | 1018.9 |
| 20260901205528 | 26 | 143 | 0.0 | 4.8 | 0.00 | 0.00 | 0.00 | 77 | 1019.0 |
| 20260901205043 | 26 | 128 | 0.0 | 4.8 | 0.00 | 0.00 | 0.00 | 77 | 1019.0 |
| 20260901204552 | 26 | 158 | 0.0 | 4.8 | 0.00 | 0.00 | 0.00 | 77 | 1019.2 |
| 20260901204102 | 26 | 200 | 0.0 | 4.8 | 0.00 | 0.00 | 0.00 | 77 | 1019.2 |
| 20260901203507 | 26 | 174 | 1.6 | 4.8 | 0.00 | 0.00 | 0.00 | 77 | 1019.1 |
| 20260901203019 | 26 | 148 | 0.0 | 9.7 | 0.00 | 0.00 | 0.00 | 77 | 1019.1 |
| 20260901202522 | 27 | 157 | 3.2 | 11.3 | 0.00 | 0.00 | 0.00 | 77 | 1019.1 |
| 20260901202032 | 27 | 229 | 3.2 | 12.9 | 0.00 | 0.00 | 0.00 | 77 | 1019.2 |
| 20260901201540 | 27 | 262 | 4.8 | 14.5 | 0.00 | 0.00 | 0.00 | 77 | 1018.9 |
| 20260901201046 | 27 | 232 | 8.0 | 19.3 | 0.00 | 0.00 | 0.00 | 77 | 1018.9 |
| 20260901200553 | 27 | 242 | 11.3 | 17.7 | 0.00 | 0.00 | 0.00 | 77 | 1018.7 |
| 20260901200103 | 27 | 259 | 9.7 | 14.5 | 0.00 | 0.00 | 0.00 | 77 | 1018.6 |
| 20260901195504 | 27 | 278 | 4.8 | 12.9 | 0.00 | 0.00 | 0.00 | 77 | 1018.4 |
| 20260901195016 | 27 | 230 | 6.4 | 11.3 | 0.00 | 0.00 | 0.00 | 76 | 1018.3 |
| 20260901194520 | 27 | 259 | 4.8 | 9.7 | 0.00 | 0.00 | 0.00 | 76 | 1017.9 |
| 20260901194028 | 27 | 307 | 1.6 | 6.4 | 0.00 | 0.00 | 0.00 | 77 | 1017.4 |
| 20260901193537 | 27 | 124 | 0.0 | 3.2 | 0.00 | 0.00 | 0.00 | 76 | 1016.9 |
| 20260901193058 | 27 | 152 | 0.0 | 3.2 | 0.00 | 0.00 | 0.00 | 76 | 1017.0 |
| 20260901192553 | 27 | 115 | 0.0 | 4.8 | 0.00 | 0.00 | 0.00 | 76 | 1017.1 |
| 20260901192105 | 27 | 94 | 0.0 | 4.8 | 0.00 | 0.00 | 0.00 | 76 | 1017.2 |
| 20260901191507 | 27 | 297 | 0.0 | 3.2 | 0.00 | 0.00 | 0.00 | 76 | 1017.2 |
| 20260901191015 | 27 | 288 | 0.0 | 4.8 | 0.00 | 0.00 | 0.00 | 76 | 1017.2 |
| 20260901190524 | 27 | 257 | 1.6 | 4.8 | 0.00 | 0.00 | 0.00 | 76 | 1017.2 |
| 20260901190029 | 27 | 124 | 1.6 | 4.8 | 0.00 | 0.00 | 0.00 | 76 | 1017.0 |
| 20260901185536 | 27 | 86 | 0.0 | 3.2 | 0.00 | 0.00 | 0.00 | 76 | 1017.1 |